Location: Canazei
(46.4667°N, 11.7667°E)
Time: 07:12:32
(UTC+00:00)

Cosmos 2263 - Pass Details

Date: 21 April 2021
Orbit: 829 x 867 km, 70.9° (Epoch: 05 May)

Event Time Altitude Azimuth Distance (km) Brightness Sun altitude
Exits shadow 03:11:38 - 201° (SSW) 2,796 6.4 -10.8°
Reaches altitude 10° 03:12:29 10° 201° (SSW) 2,475 6.2 -10.7°
Maximum altitude 03:18:11 82° 114° (ESE) 873 4.3 -9.8°
Drops below altitude 10° 03:23:59 10° 28° (NNE) 2,513 7.6 -8.9°
Sets 03:26:27 0° 28° (NNE) 3,457 8.4 -8.6°
